Quantico, VA

11:35 AM EDT on August 19, 2017 (GMT -0400)
Quantico Marine Corps Air Facility

Weather History for KNYG - July, 2013

Change the Weather History Date:

Wednesday, July 3, 2013

  Actual Average Record
Temperature  
Mean Temperature 78 °F -  
Max Temperature 84 °F 83 °F 99 °F (2012)
Min Temperature 73 °F 65 °F 55 °F (2001)
Cooling Degree Days 14    
Growing Degree Days 28 (Base 50)    
Moisture  
Dew Point 72 °F    
Average Humidity 83    
Maximum Humidity 94    
Minimum Humidity 72    
Precipitation  
Precipitation 0.02 in - - ()
Sea Level Pressure  
Sea Level Pressure 30.22 in    
Wind  
Wind Speed 10 mph (SSW)    
Max Wind Speed 17 mph    
Max Gust Speed 17 mph    
Visibility 10 miles    
Events Rain , Thunderstorm    
Averages and records for this station are not official NWS values.
T = Trace of Precipitation, MM = Missing Value Source: NWS Daily Summary

Daily Weather History Graph

Daily Weather History Graph

Search for Another Location

Airport or City:

Trip Planner

Search our weather history database for the weather conditions in past years. The results will help you decide how hot, cold, wet, or windy it might be!

Date:

Astronomy

Jul. 03, 2013 Rise Set
Actual Time 5:49 AM EDT 8:36 PM EDT
Civil Twilight 5:18 AM EDT 9:08 PM EDT
Nautical Twilight 4:38 AM EDT 9:48 PM EDT
Astronomical Twilight 3:53 AM EDT 10:32 PM EDT
Moon 2:25 AM EDT (7/3) 4:46 PM EDT (7/3)
Length of Visible Light 15h 50m
Length of Day
14h 47m
Waning Crescent, 18% of the Moon is Illuminated
Jul 3
Waning Crescent
Jul 8
New
Jul 15
First Quarter
Jul 22
Full
Jul 29
Last Quarter

Hourly Weather History & Observations

Time (EDT) Temp. Heat Index Dew Point Humidity Pressure Visibility Wind Dir Wind Speed Gust Speed Precip Events Conditions
12:08 AM 75.2 °F - 69.8 °F 83% 30.19 in 10.0 mi SSW 16.1 mph - N/A   Scattered Clouds
12:23 AM 75.2 °F - 69.8 °F 83% 30.20 in 10.0 mi SSW 12.7 mph - N/A   Mostly Cloudy
12:56 AM 75.0 °F - 70.0 °F 84% 30.21 in 10.0 mi SSW 9.2 mph 17.3 mph N/A   Partly Cloudy
1:56 AM 75.0 °F - 70.0 °F 84% 30.19 in 10.0 mi SSW 11.5 mph - N/A   Partly Cloudy
2:56 AM 73.9 °F - 70.0 °F 87% 30.19 in 10.0 mi WSW 4.6 mph - N/A   Mostly Cloudy
3:56 AM 73.9 °F - 70.0 °F 87% 30.19 in 10.0 mi SW 5.8 mph - 0.00 in Rain Light Rain
4:13 AM 73.4 °F - 69.8 °F 88% 30.19 in 10.0 mi WSW 4.6 mph - 0.00 in Rain Light Rain
4:38 AM 73.4 °F - 69.8 °F 88% 30.19 in 10.0 mi WSW 4.6 mph - 0.00 in Rain Light Rain
4:56 AM 73.9 °F - 69.1 °F 85% 30.19 in 10.0 mi SW 3.5 mph - 0.01 in Rain Light Rain
5:47 AM 73.4 °F - 71.6 °F 94% 30.20 in 10.0 mi SSW 10.4 mph - 0.00 in   Overcast
5:56 AM 73.9 °F - 71.1 °F 91% 30.21 in 10.0 mi SSW 10.4 mph - 0.00 in   Overcast
6:56 AM 75.0 °F - 71.1 °F 87% 30.22 in 6.0 mi SW 5.8 mph - 0.00 in Rain Light Rain
7:31 AM 75.2 °F - 71.6 °F 89% 30.22 in 10.0 mi SSW 11.5 mph - 0.01 in   Overcast
7:56 AM 75.9 °F - 72.0 °F 87% 30.23 in 10.0 mi SSW 12.7 mph - 0.01 in   Overcast
8:56 AM 77.0 °F - 72.0 °F 84% 30.24 in 10.0 mi SSW 5.8 mph - N/A   Overcast
9:56 AM 79.0 °F - 73.0 °F 82% 30.25 in 10.0 mi SSW 9.2 mph - N/A   Mostly Cloudy
10:38 AM 78.8 °F - 73.4 °F 83% 30.24 in 10.0 mi SSW 8.1 mph - 0.00 in   Mostly Cloudy
10:56 AM 81.0 °F 86.2 °F 73.9 °F 79% 30.25 in 10.0 mi SSW 9.2 mph - 0.00 in   Mostly Cloudy
11:36 AM 80.6 °F 85.4 °F 73.4 °F 79% 30.23 in 10.0 mi SW 8.1 mph - N/A   Overcast
11:56 AM 82.9 °F 90.2 °F 75.0 °F 77% 30.23 in 10.0 mi South 4.6 mph - N/A   Mostly Cloudy
12:56 PM 82.9 °F 88.8 °F 73.0 °F 72% 30.23 in 7.0 mi SSW 9.2 mph - N/A   Mostly Cloudy
1:22 PM 84.2 °F 92.3 °F 75.2 °F 74% 30.22 in 7.0 mi SSW 16.1 mph - N/A Thunderstorm Thunderstorm
1:56 PM 82.0 °F 87.9 °F 73.9 °F 76% 30.22 in 7.0 mi South 15.0 mph - N/A   Mostly Cloudy
2:56 PM 82.9 °F 89.4 °F 73.9 °F 74% 30.22 in 10.0 mi South 15.0 mph - N/A   Mostly Cloudy
3:56 PM 81.0 °F 86.7 °F 75.0 °F 82% 30.22 in 10.0 mi South 17.3 mph - 0.00 in   Mostly Cloudy
4:56 PM 82.0 °F 87.9 °F 73.9 °F 76% 30.21 in 10.0 mi South 6.9 mph - N/A   Scattered Clouds
5:23 PM 80.6 °F 86.2 °F 75.2 °F 84% 30.20 in 10.0 mi South 12.7 mph - 0.00 in Rain Light Rain
5:44 PM 82.4 °F 90.9 °F 77.0 °F 84% 30.19 in 10.0 mi South 10.4 mph - 0.00 in Rain Light Rain
5:56 PM 82.9 °F 90.2 °F 75.0 °F 77% 30.19 in 10.0 mi SSW 10.4 mph - 0.00 in   Partly Cloudy
6:56 PM 81.0 °F 86.2 °F 73.9 °F 79% 30.22 in 10.0 mi South 16.1 mph - N/A   Clear
7:56 PM 79.0 °F - 73.0 °F 82% 30.22 in 10.0 mi South 17.3 mph - N/A   Clear
8:56 PM 78.1 °F - 72.0 °F 81% 30.22 in 10.0 mi SW 5.8 mph - N/A   Clear
9:56 PM 78.1 °F - 72.0 °F 81% 30.24 in 10.0 mi SSW 6.9 mph - N/A   Clear
10:56 PM 77.0 °F - 72.0 °F 84% 30.25 in 10.0 mi SSW 9.2 mph - N/A   Clear
11:56 PM 77.0 °F - 72.0 °F 84% 30.25 in 10.0 mi SW 4.6 mph - N/A   Clear